This demonstration page uses our WeatherBlox Daily Observations layout. Learn more.

Hourly Observations for March 2, 2017

Temp ( °F °C ) Dew Point ( °F °C ) Humidity (%) Winds ( mph kmh ) Pressure ( in mb ) Visibility ( mi km ) Precip ( " mm )
12:15 am 00:15 Clear 31 -0.6 15 -9.6 51 51 W 9 15 30.33 1027 10 16.0934 0 0
12:35 am 00:35 Clear 30 -0.9 15 -9.5 53 53 W 10 17 30.33 1027 10 16.0934 0 0
12:55 am 00:55 Clear 31 -0.5 15 -9.5 51 51 W 9 15 30.33 1027 10 16.0934 0 0
1:15 am 01:15 Clear 30 -1.1 16 -9.1 55 55 W 9 15 30.33 1027 10 16.0934 0 0
1:35 am 01:35 Clear 30 -1.2 16 -8.8 57 57 W 8 13 30.33 1027 10 16.0934 0 0
1:55 am 01:55 Clear 30 -1.2 16 -9 56 56 W 9 15 30.33 1027 10 16.0934 0 0
2:15 am 02:15 Clear 28 -2.2 16 -9.1 60 60 W 10 17 30.36 1028 10 16.0934 0 0
2:35 am 02:35 Clear 28 -2.4 16 -8.9 61 61 W 9 15 30.36 1028 10 16.0934 0 0
2:55 am 02:55 Clear 28 -2.2 17 -8.5 62 62 W 10 17 30.36 1028 10 16.0934 0 0
3:15 am 03:15 Clear 29 -1.5 18 -7.8 63 63 W 12 19 30.36 1028 10 16.0934 0 0
3:35 am 03:35 Clear 30 -1.3 18 -7.7 62 62 W 12 19 30.33 1027 10 16.0934 0 0
3:55 am 03:55 Clear 30 -1.1 18 -8 60 60 W 12 19 30.33 1027 10 16.0934 0 0
4:15 am 04:15 Clear 27 -2.6 17 -8.4 65 65 W 12 19 30.36 1028 10 16.0934 0 0
4:35 am 04:35 Clear 27 -2.8 17 -8.2 67 67 W 13 20 30.39 1029 10 16.0934 0 0
4:55 am 04:55 Clear 27 -3 17 -8.3 67 67 W 13 20 30.39 1029 10 16.0934 0 0
5:15 am 05:15 Clear 27 -2.7 18 -8 67 67 W 13 20 30.39 1029 10 16.0934 0 0
5:35 am 05:35 Clear 28 -2.1 18 -7.8 65 65 W 12 19 30.39 1029 10 16.0934 0 0
5:55 am 05:55 Clear 28 -2.5 18 -8 66 66 W 13 20 30.39 1029 10 16.0934 0 0
6:15 am 06:15 Clear 28 -2.2 17 -8.1 64 64 W 12 19 30.42 1030 10 16.0934 0 0
6:35 am 06:35 Clear 28 -2 17 -8.1 63 63 W 12 19 30.42 1030 10 16.0934 0 0
6:55 am 06:55 Clear 29 -1.9 17 -8.3 62 62 WNW 12 19 30.42 1030 10 16.0934 0 0
7:15 am 07:15 Sunny 28 -2.5 17 -8.2 65 65 W 10 17 30.45 1031 10 16.0934 0 0
7:35 am 07:35 Sunny 27 -2.7 18 -8 67 67 W 9 15 30.45 1031 10 16.0934 0 0
7:55 am 07:55 Sunny 27 -2.6 19 -7.5 69 69 WNW 7 11 30.45 1031 10 16.0934 0 0
8:15 am 08:15 Sunny 31 -0.5 21 -6.2 66 66 NW 10 17 30.48 1032 10 16.0934 0 0
8:35 am 08:35 Sunny 33 0.5 21 -6 62 62 NW 16 26 30.45 1031 10 16.0934 0 0
8:55 am 08:55 Sunny 35 1.5 21 -6 58 58 NW 14 22 30.48 1032 10 16.0934 0 0
9:15 am 09:15 Sunny 37 3 22 -5.6 54 54 NNW 12 19 30.45 1031 10 16.0934 0 0
9:35 am 09:35 Sunny 37 2.9 22 -5.3 55 55 NNW 13 20 30.48 1032 10 16.0934 0 0
9:55 am 09:55 Sunny 39 3.7 24 -4.6 55 55 N 12 19 30.45 1031 10 16.0934 0 0
10:15 am 10:15 Sunny 39 3.7 24 -4.5 55 55 N 14 22 30.48 1032 10 16.0934 0 0
10:35 am 10:35 Sunny 40 4.4 24 -4.4 53 53 NNW 12 19 30.48 1032 10 16.0934 0 0
10:55 am 10:55 Sunny 41 5.2 24 -4.4 50 50 NNW 15 24 30.48 1032 10 16.0934 0 0
11:15 am 11:15 Sunny 42 5.8 24 -4.6 48 48 NNW 12 19 30.48 1032 10 16.0934 0 0
11:35 am 11:35 Partly Cloudy 44 6.6 24 -4.5 45 45 NNW 10 17 30.45 1031 10 16.0934 0 0
11:55 am 11:55 Mostly Cloudy 44 6.8 23 -5.2 42 42 NNW 12 19 30.45 1031 10 16.0934 0 0
12:15 pm 12:15 Mostly Cloudy 45 7.2 21 -6.1 39 39 NNW 14 22 30.45 1031 10 16.0934 0 0
12:35 pm 12:35 Partly Cloudy 45 7.2 20 -6.6 37 37 NW 17 28 30.45 1031 10 16.0934 0 0
12:55 pm 12:55 Sunny 46 7.7 20 -6.9 35 35 NW 9 15 30.45 1031 10 16.0934 0 0
1:15 pm 13:15 Partly Cloudy 47 8.4 19 -7.4 32 32 NW 14 22 30.45 1031 10 16.0934 0 0
1:35 pm 13:35 Partly Cloudy 47 8.4 18 -7.6 32 32 WNW 17 28 30.45 1031 10 16.0934 0 0
1:55 pm 13:55 Partly Cloudy 47 8.6 17 -8.2 30 30 WNW 14 22 30.42 1030 10 16.0934 0 0
2:15 pm 14:15 Partly Cloudy 47 8.6 17 -8.5 29 29 NW 14 22 30.42 1030 10 16.0934 0 0
2:35 pm 14:35 Sunny 47 8.3 16 -9 29 29 NW 10 17 30.42 1030 10 16.0934 0 0
2:55 pm 14:55 Sunny 48 8.8 17 -8.5 29 29 NNW 15 24 30.42 1030 10 16.0934 0 0
3:15 pm 15:15 Partly Cloudy 48 9.1 15 -9.3 26 26 NNW 14 22 30.42 1030 10 16.0934 0 0
3:35 pm 15:35 Partly Cloudy 48 9 16 -9 27 27 NW 12 19 30.42 1030 10 16.0934 0 0
3:55 pm 15:55 Sunny 48 8.7 14 -9.9 26 26 NNW 14 22 30.42 1030 10 16.0934 0 0
4:15 pm 16:15 Sunny 48 8.7 13 -10.5 25 25 NW 13 20 30.45 1031 10 16.0934 0 0
4:35 pm 16:35 Sunny 47 8.6 13 -10.3 25 25 NW 12 19 30.45 1031 10 16.0934 0 0
4:55 pm 16:55 Sunny 47 8.2 13 -10.6 25 25 NW 9 15 30.45 1031 10 16.0934 0 0
5:15 pm 17:15 Sunny 46 8 13 -10.7 26 26 NNW 12 19 30.45 1031 10 16.0934 0 0
5:35 pm 17:35 Sunny 46 7.5 13 -10.4 27 27 NNW 9 15 30.45 1031 10 16.0934 0 0
5:55 pm 17:55 Sunny 44 6.8 14 -10.2 29 29 N 9 15 30.45 1031 10 16.0934 0 0
6:15 pm 18:15 Sunny 42 5.7 14 -10 32 32 N 7 11 30.48 1032 10 16.0934 0 0
6:35 pm 18:35 Clear 38 3.1 13 -10.7 36 36 NNE 7 11 30.5 1033 10 16.0934 0 0
6:55 pm 18:55 Clear 34 1.3 13 -10.7 41 41 NNE 6 9 30.5 1033 10 16.0934 0 0
7:15 pm 19:15 Clear 31 -0.4 12 -11 45 45 NNE 6 9 30.53 1034 10 16.0934 0 0
7:35 pm 19:35 Clear 29 -1.9 13 -10.4 53 53 NE 9 15 30.53 1034 10 16.0934 0 0
7:55 pm 19:55 Clear 29 -1.6 13 -10.5 51 51 NE 8 13 30.53 1034 10 16.0934 0 0
8:15 pm 20:15 Clear 29 -1.7 13 -10.3 52 52 NE 9 15 30.53 1034 10 16.0934 0 0
8:35 pm 20:35 Clear 29 -1.8 13 -10.6 51 51 ENE 8 13 30.53 1034 10 16.0934 0 0
8:55 pm 20:55 Clear 27 -2.6 13 -10.8 54 54 ENE 9 15 30.59 1036 10 16.0934 0 0
9:15 pm 21:15 Clear 31 -0.3 14 -10.1 48 48 E 8 13 30.53 1034 10 16.0934 0 0
9:35 pm 21:35 Clear 28 -2.5 13 -10.7 54 54 E 8 13 30.56 1035 10 16.0934 0 0
9:55 pm 21:55 Clear 27 -2.7 13 -10.6 55 55 E 6 9 30.59 1036 10 16.0934 0 0
10:15 pm 22:15 Clear 26 -3.2 13 -10.3 58 58 E 8 13 30.59 1036 10 16.0934 0 0
10:35 pm 22:35 Mostly Cloudy 26 -3.5 14 -9.9 62 62 E 9 15 30.59 1036 10 16.0934 0 0
10:55 pm 22:55 Partly Cloudy 27 -3 15 -9.3 62 62 ESE 9 15 30.59 1036 10 16.0934 0 0
11:15 pm 23:15 Clear 25 -4 15 -9.7 65 65 SE 9 15 30.59 1036 10 16.0934 0 0
11:35 pm 23:35 Clear 24 -4.5 14 -9.8 67 67 SE 8 13 30.59 1036 10 16.0934 0 0
11:55 pm 23:55 Clear 24 -4.6 15 -9.2 71 71 SSE 7 11 30.59 1036 10 16.0934 0 0

Powered by AerisWeather